TimeEDT,TemperatureF,Dew PointF,Humidity,Sea Level PressureIn,VisibilityMPH,Wind Direction,Wind SpeedMPH,Gust SpeedMPH,PrecipitationIn,Events,Conditions,WindDirDegrees,DateUTC
12:52 AM,48.0,45.0,89,29.83,10.0,Calm,Calm,-,N/A,,Clear,0,2013-06-15 04:52:00
1:52 AM,46.0,43.0,89,29.84,10.0,Calm,Calm,-,N/A,,Clear,0,2013-06-15 05:52:00
2:06 AM,44.6,42.8,93,29.85,1.8,Calm,Calm,-,N/A,,Clear,0,2013-06-15 06:06:00
2:14 AM,44.6,41.0,87,29.85,5.0,Calm,Calm,-,N/A,,Clear,0,2013-06-15 06:14:00
2:26 AM,44.6,41.0,87,29.86,10.0,Calm,Calm,-,N/A,,Partly Cloudy,0,2013-06-15 06:26:00
2:52 AM,44.1,39.9,85,29.87,10.0,Calm,Calm,-,N/A,,Clear,0,2013-06-15 06:52:00
3:52 AM,42.1,37.9,85,29.88,10.0,SSE,3.5,-,N/A,,Clear,150,2013-06-15 07:52:00
4:52 AM,39.0,36.0,89,29.90,10.0,Calm,Calm,-,N/A,,Clear,0,2013-06-15 08:52:00
5:52 AM,41.0,37.9,89,29.92,10.0,Calm,Calm,-,N/A,,Clear,0,2013-06-15 09:52:00
6:52 AM,46.9,43.0,86,29.92,10.0,Calm,Calm,-,N/A,,Clear,0,2013-06-15 10:52:00
7:52 AM,57.0,46.0,67,29.94,10.0,Calm,Calm,-,N/A,,Clear,0,2013-06-15 11:52:00
8:52 AM,61.0,42.1,50,29.95,10.0,WNW,4.6,-,N/A,,Clear,290,2013-06-15 12:52:00
9:52 AM,64.0,42.1,45,29.94,10.0,Variable,5.8,-,N/A,,Clear,0,2013-06-15 13:52:00
10:52 AM,66.0,37.9,36,29.92,10.0,NNW,5.8,16.1,N/A,,Scattered Clouds,340,2013-06-15 14:52:00
11:52 AM,66.0,39.0,37,29.92,10.0,WNW,9.2,-,N/A,,Mostly Cloudy,290,2013-06-15 15:52:00
12:52 PM,69.1,39.0,33,29.92,10.0,WNW,11.5,18.4,N/A,,Scattered Clouds,300,2013-06-15 16:52:00
1:52 PM,71.1,41.0,34,29.91,10.0,West,16.1,21.9,N/A,,Mostly Cloudy,280,2013-06-15 17:52:00
2:52 PM,69.1,41.0,36,29.91,10.0,West,11.5,17.3,N/A,,Mostly Cloudy,280,2013-06-15 18:52:00
3:52 PM,69.1,41.0,36,29.91,10.0,NW,10.4,-,N/A,,Scattered Clouds,310,2013-06-15 19:52:00
4:52 PM,71.1,39.9,32,29.90,10.0,WNW,11.5,-,N/A,,Scattered Clouds,300,2013-06-15 20:52:00
5:52 PM,70.0,37.0,30,29.89,10.0,West,11.5,17.3,N/A,,Scattered Clouds,270,2013-06-15 21:52:00
6:52 PM,69.1,39.0,33,29.89,10.0,West,8.1,-,N/A,,Clear,280,2013-06-15 22:52:00
7:52 PM,66.9,39.0,36,29.89,10.0,West,4.6,-,N/A,,Clear,260,2013-06-15 23:52:00
8:52 PM,62.1,39.9,44,29.90,10.0,Calm,Calm,-,N/A,,Clear,0,2013-06-16 00:52:00
9:52 PM,54.0,44.1,69,29.92,10.0,Calm,Calm,-,N/A,,Clear,0,2013-06-16 01:52:00
10:52 PM,50.0,43.0,77,29.93,10.0,Calm,Calm,-,N/A,,Clear,0,2013-06-16 02:52:00
11:52 PM,46.9,43.0,86,29.93,10.0,Calm,Calm,-,N/A,,Clear,0,2013-06-16 03:52:00